Year,Month,Day,Hour,Minute,Value (Times are PST for temperature in C)
2005,10,22,00,00,8.70
2005,10,22,00,01,8.70
2005,10,22,00,02,8.70
2005,10,22,00,03,8.70
2005,10,22,00,04,8.70
2005,10,22,00,05,8.70
2005,10,22,00,06,8.70
2005,10,22,00,07,8.70
2005,10,22,00,08,8.70
2005,10,22,00,09,8.70
2005,10,22,00,10,8.70
2005,10,22,00,11,8.70
2005,10,22,00,12,8.60
2005,10,22,00,13,8.60
2005,10,22,00,14,8.60
2005,10,22,00,15,8.60
2005,10,22,00,16,8.60
2005,10,22,00,17,8.60
2005,10,22,00,18,8.60
2005,10,22,00,19,8.60
2005,10,22,00,20,8.60
2005,10,22,00,21,8.60
2005,10,22,00,22,8.60
2005,10,22,00,23,8.60
2005,10,22,00,24,8.60
2005,10,22,00,25,8.60
2005,10,22,00,26,8.60
2005,10,22,00,27,8.60
2005,10,22,00,28,8.70
2005,10,22,00,29,8.70
2005,10,22,00,30,8.70
2005,10,22,00,31,8.70
2005,10,22,00,32,8.70
2005,10,22,00,33,8.70
2005,10,22,00,34,8.70
2005,10,22,00,35,8.70
2005,10,22,00,36,8.70
2005,10,22,00,37,8.70
2005,10,22,00,38,8.70
2005,10,22,00,39,8.70
2005,10,22,00,40,8.70
2005,10,22,00,41,8.70
2005,10,22,00,42,8.70
2005,10,22,00,43,8.70
2005,10,22,00,44,8.70
2005,10,22,00,45,8.70
2005,10,22,00,46,8.70
2005,10,22,00,47,8.60
2005,10,22,00,48,8.60
2005,10,22,00,49,8.60
2005,10,22,00,50,8.60
2005,10,22,00,51,8.60
2005,10,22,00,52,8.60
2005,10,22,00,53,8.60
2005,10,22,00,54,8.60
2005,10,22,00,55,8.60
2005,10,22,00,56,8.60
2005,10,22,00,57,8.60
2005,10,22,00,58,8.60
2005,10,22,00,59,8.60
2005,10,22,01,00,8.60
2005,10,22,01,01,8.60
2005,10,22,01,02,8.60
2005,10,22,01,03,8.60
2005,10,22,01,04,8.60
2005,10,22,01,05,8.50
2005,10,22,01,06,8.50
2005,10,22,01,07,8.50
2005,10,22,01,08,8.50
2005,10,22,01,09,8.40
2005,10,22,01,10,8.40
2005,10,22,01,11,8.40
2005,10,22,01,12,8.40
2005,10,22,01,13,8.40
2005,10,22,01,14,8.40
2005,10,22,01,15,8.40
2005,10,22,01,16,8.40
2005,10,22,01,17,8.40
2005,10,22,01,18,8.40
2005,10,22,01,19,8.40
2005,10,22,01,20,8.40
2005,10,22,01,21,8.40
2005,10,22,01,22,8.40
2005,10,22,01,23,8.40
2005,10,22,01,24,8.40
2005,10,22,01,25,8.30
2005,10,22,01,26,8.30
2005,10,22,01,27,8.30
2005,10,22,01,28,8.30
2005,10,22,01,29,8.30
2005,10,22,01,30,8.30
2005,10,22,01,31,8.30
2005,10,22,01,32,8.30
2005,10,22,01,33,8.30
2005,10,22,01,34,8.30
2005,10,22,01,35,8.30
2005,10,22,01,36,8.30
2005,10,22,01,37,8.30
2005,10,22,01,38,8.30
2005,10,22,01,39,8.30
2005,10,22,01,40,8.30
2005,10,22,01,41,8.30
2005,10,22,01,42,8.20
2005,10,22,01,43,8.20
2005,10,22,01,44,8.20
2005,10,22,01,45,8.20
2005,10,22,01,46,8.20
2005,10,22,01,47,8.20
2005,10,22,01,48,8.20
2005,10,22,01,49,8.20
2005,10,22,01,50,8.20
2005,10,22,01,51,8.10
2005,10,22,01,52,8.20
2005,10,22,01,53,8.10
2005,10,22,01,54,8.10
2005,10,22,01,55,8.10
2005,10,22,01,56,8.10
2005,10,22,01,57,8.10
2005,10,22,01,58,8.10
2005,10,22,01,59,8.10
2005,10,22,02,00,8.10
2005,10,22,02,01,8.00
2005,10,22,02,02,8.00
2005,10,22,02,03,8.00
2005,10,22,02,04,8.00
2005,10,22,02,05,8.00
2005,10,22,02,06,8.00
2005,10,22,02,07,8.00
2005,10,22,02,08,8.00
2005,10,22,02,09,8.00
2005,10,22,02,10,7.90
2005,10,22,02,11,7.90
2005,10,22,02,12,7.90
2005,10,22,02,13,7.90
2005,10,22,02,14,7.90
2005,10,22,02,15,7.90
2005,10,22,02,16,7.90
2005,10,22,02,17,7.80
2005,10,22,02,18,7.80
2005,10,22,02,19,7.80
2005,10,22,02,20,7.80
2005,10,22,02,21,7.80
2005,10,22,02,22,7.80
2005,10,22,02,23,7.80
2005,10,22,02,24,7.80
2005,10,22,02,25,7.80
2005,10,22,02,26,7.80
2005,10,22,02,27,7.80
2005,10,22,02,28,7.80
2005,10,22,02,29,7.80
2005,10,22,02,30,7.80
2005,10,22,02,31,7.80
2005,10,22,02,32,7.80
2005,10,22,02,33,7.80
2005,10,22,02,34,7.80
2005,10,22,02,35,7.70
2005,10,22,02,36,7.70
2005,10,22,02,37,7.70
2005,10,22,02,38,7.70
2005,10,22,02,39,7.70
2005,10,22,02,40,7.70
2005,10,22,02,41,7.70
2005,10,22,02,42,7.70
2005,10,22,02,43,7.70
2005,10,22,02,44,7.70
2005,10,22,02,45,7.60
2005,10,22,02,46,7.60
2005,10,22,02,47,7.60
2005,10,22,02,48,7.60
2005,10,22,02,49,7.60
2005,10,22,02,50,7.60
2005,10,22,02,51,7.60
2005,10,22,02,52,7.60
2005,10,22,02,53,7.60
2005,10,22,02,54,7.60
2005,10,22,02,55,7.60
2005,10,22,02,56,7.60
2005,10,22,02,57,7.50
2005,10,22,02,58,7.50
2005,10,22,02,59,7.50
2005,10,22,03,00,7.40
2005,10,22,03,01,7.40
2005,10,22,03,02,7.40
2005,10,22,03,03,7.40
2005,10,22,03,04,7.40
2005,10,22,03,05,7.40
2005,10,22,03,06,7.30
2005,10,22,03,07,7.30
2005,10,22,03,08,7.30
2005,10,22,03,09,7.30
2005,10,22,03,10,7.30
2005,10,22,03,11,7.30
2005,10,22,03,12,7.30
2005,10,22,03,13,7.30
2005,10,22,03,14,7.30
2005,10,22,03,15,7.30
2005,10,22,03,16,7.30
2005,10,22,03,17,7.30
2005,10,22,03,18,7.30
2005,10,22,03,19,7.30
2005,10,22,03,20,7.30
2005,10,22,03,21,7.30
2005,10,22,03,22,7.30
2005,10,22,03,23,7.30
2005,10,22,03,24,7.30
2005,10,22,03,25,7.30
2005,10,22,03,26,7.30
2005,10,22,03,27,7.30
2005,10,22,03,28,7.30
2005,10,22,03,29,7.30
2005,10,22,03,30,7.30
2005,10,22,03,31,7.30
2005,10,22,03,32,7.30
2005,10,22,03,33,7.20
2005,10,22,03,34,7.20
2005,10,22,03,35,7.20
2005,10,22,03,36,7.20
2005,10,22,03,37,7.10
2005,10,22,03,38,7.10
2005,10,22,03,39,7.10
2005,10,22,03,40,7.10
2005,10,22,03,41,7.10
2005,10,22,03,42,7.10
2005,10,22,03,43,7.10
2005,10,22,03,44,7.10
2005,10,22,03,45,7.10
2005,10,22,03,46,7.00
2005,10,22,03,47,7.00
2005,10,22,03,48,7.00
2005,10,22,03,49,7.00
2005,10,22,03,50,7.00
2005,10,22,03,51,7.00
2005,10,22,03,52,6.90
2005,10,22,03,53,6.90
2005,10,22,03,54,6.90
2005,10,22,03,55,6.90
2005,10,22,03,56,6.80
2005,10,22,03,57,6.80
2005,10,22,03,58,6.80
2005,10,22,03,59,6.80
2005,10,22,04,00,6.80
2005,10,22,04,01,6.80
2005,10,22,04,02,6.80
2005,10,22,04,03,6.80
2005,10,22,04,04,6.80
2005,10,22,04,05,6.80
2005,10,22,04,06,6.80
2005,10,22,04,07,6.80
2005,10,22,04,08,6.80
2005,10,22,04,09,6.80
2005,10,22,04,10,6.80
2005,10,22,04,11,6.80
2005,10,22,04,12,6.80
2005,10,22,04,13,6.80
2005,10,22,04,14,6.80
2005,10,22,04,15,6.80
2005,10,22,04,16,6.80
2005,10,22,04,17,6.80
2005,10,22,04,18,6.80
2005,10,22,04,19,6.80
2005,10,22,04,20,6.80
2005,10,22,04,21,6.80
2005,10,22,04,22,6.80
2005,10,22,04,23,6.80
2005,10,22,04,24,6.80
2005,10,22,04,25,6.80
2005,10,22,04,26,6.80
2005,10,22,04,27,6.80
2005,10,22,04,28,6.80
2005,10,22,04,29,6.80
2005,10,22,04,30,6.80
2005,10,22,04,31,6.80
2005,10,22,04,32,6.80
2005,10,22,04,33,6.80
2005,10,22,04,34,6.80
2005,10,22,04,35,6.80
2005,10,22,04,36,6.80
2005,10,22,04,37,6.80
2005,10,22,04,38,6.80
2005,10,22,04,39,6.80
2005,10,22,04,40,6.80
2005,10,22,04,41,6.80
2005,10,22,04,42,6.80
2005,10,22,04,43,6.70
2005,10,22,04,44,6.70
2005,10,22,04,45,6.70
2005,10,22,04,46,6.70
2005,10,22,04,47,6.70
2005,10,22,04,48,6.70
2005,10,22,04,49,6.70
2005,10,22,04,50,6.70
2005,10,22,04,51,6.70
2005,10,22,04,52,6.70
2005,10,22,04,53,6.70
2005,10,22,04,54,6.70
2005,10,22,04,55,6.60
2005,10,22,04,56,6.60
2005,10,22,04,57,6.60
2005,10,22,04,58,6.60
2005,10,22,04,59,6.60
2005,10,22,05,00,6.60
2005,10,22,05,01,6.60
2005,10,22,05,02,6.60
2005,10,22,05,03,6.60
2005,10,22,05,04,6.60
2005,10,22,05,05,6.60
2005,10,22,05,06,6.60
2005,10,22,05,07,6.60
2005,10,22,05,08,6.60
2005,10,22,05,09,6.60
2005,10,22,05,10,6.50
2005,10,22,05,11,6.40
2005,10,22,05,12,6.40
2005,10,22,05,13,6.40
2005,10,22,05,14,6.40
2005,10,22,05,15,6.50
2005,10,22,05,16,6.40
2005,10,22,05,17,6.40
2005,10,22,05,18,6.40
2005,10,22,05,19,6.60
2005,10,22,05,20,6.60
2005,10,22,05,21,6.60
2005,10,22,05,22,6.60
2005,10,22,05,23,6.50
2005,10,22,05,24,6.40
2005,10,22,05,25,6.40
2005,10,22,05,26,6.40
2005,10,22,05,27,6.40
2005,10,22,05,28,6.40
2005,10,22,05,29,6.40
2005,10,22,05,30,6.40
2005,10,22,05,31,6.40
2005,10,22,05,32,6.40
2005,10,22,05,33,6.40
2005,10,22,05,34,6.30
2005,10,22,05,35,6.30
2005,10,22,05,36,6.30
2005,10,22,05,37,6.20
2005,10,22,05,38,6.20
2005,10,22,05,39,6.20
2005,10,22,05,40,6.20
2005,10,22,05,41,6.20
2005,10,22,05,42,6.20
2005,10,22,05,43,6.20
2005,10,22,05,44,6.20
2005,10,22,05,45,6.20
2005,10,22,05,46,6.20
2005,10,22,05,47,6.20
2005,10,22,05,48,6.20
2005,10,22,05,49,6.20
2005,10,22,05,50,6.10
2005,10,22,05,51,6.10
2005,10,22,05,52,6.10
2005,10,22,05,53,6.10
2005,10,22,05,54,6.10
2005,10,22,05,55,6.10
2005,10,22,05,56,6.10
2005,10,22,05,57,6.10
2005,10,22,05,58,6.10
2005,10,22,05,59,6.10
2005,10,22,06,00,6.10
2005,10,22,06,01,6.20
2005,10,22,06,02,6.20
2005,10,22,06,03,6.20
2005,10,22,06,04,6.20
2005,10,22,06,05,6.20
2005,10,22,06,06,6.20
2005,10,22,06,07,6.20
2005,10,22,06,08,6.20
2005,10,22,06,09,6.20
2005,10,22,06,10,6.20
2005,10,22,06,11,6.20
2005,10,22,06,12,6.20
2005,10,22,06,13,6.10
2005,10,22,06,14,6.10
2005,10,22,06,15,6.10
2005,10,22,06,16,6.10
2005,10,22,06,17,6.10
2005,10,22,06,18,6.10
2005,10,22,06,19,6.10
2005,10,22,06,20,6.10
2005,10,22,06,21,6.00
2005,10,22,06,22,6.00
2005,10,22,06,23,6.00
2005,10,22,06,24,6.00
2005,10,22,06,25,6.00
2005,10,22,06,26,6.00
2005,10,22,06,27,6.00
2005,10,22,06,28,6.00
2005,10,22,06,29,5.90
2005,10,22,06,30,5.90
2005,10,22,06,31,5.90
2005,10,22,06,32,5.90
2005,10,22,06,33,5.90
2005,10,22,06,34,5.90
2005,10,22,06,35,5.90
2005,10,22,06,36,5.90
2005,10,22,06,37,5.90
2005,10,22,06,38,5.90
2005,10,22,06,39,5.90
2005,10,22,06,40,5.90
2005,10,22,06,41,5.90
2005,10,22,06,42,5.90
2005,10,22,06,43,5.90
2005,10,22,06,44,5.90
2005,10,22,06,45,5.90
2005,10,22,06,46,6.00
2005,10,22,06,47,6.00
2005,10,22,06,48,6.00
2005,10,22,06,49,6.00
2005,10,22,06,50,6.00
2005,10,22,06,51,6.00
2005,10,22,06,52,6.00
2005,10,22,06,53,6.10
2005,10,22,06,54,6.10
2005,10,22,06,55,6.10
2005,10,22,06,56,6.10
2005,10,22,06,57,6.20
2005,10,22,06,58,6.20
2005,10,22,06,59,6.20
2005,10,22,07,00,6.20
2005,10,22,07,01,6.20
2005,10,22,07,02,6.20
2005,10,22,07,03,6.20
2005,10,22,07,04,6.20
2005,10,22,07,05,6.20
2005,10,22,07,06,6.20
2005,10,22,07,07,6.20
2005,10,22,07,08,6.20
2005,10,22,07,09,6.20
2005,10,22,07,10,6.20
2005,10,22,07,11,6.20
2005,10,22,07,12,6.10
2005,10,22,07,13,6.10
2005,10,22,07,14,6.10
2005,10,22,07,15,6.10
2005,10,22,07,16,6.10
2005,10,22,07,17,6.10
2005,10,22,07,18,6.10
2005,10,22,07,19,6.10
2005,10,22,07,20,6.10
2005,10,22,07,21,6.00
2005,10,22,07,22,6.00
2005,10,22,07,23,6.00
2005,10,22,07,24,6.00
2005,10,22,07,25,6.00
2005,10,22,07,26,5.90
2005,10,22,07,27,5.90
2005,10,22,07,28,5.90
2005,10,22,07,29,5.80
2005,10,22,07,30,5.80
2005,10,22,07,31,5.80
2005,10,22,07,32,5.80
2005,10,22,07,33,5.80
2005,10,22,07,34,5.70
2005,10,22,07,35,5.70
2005,10,22,07,36,5.80
2005,10,22,07,37,5.80
2005,10,22,07,38,5.80
2005,10,22,07,39,5.90
2005,10,22,07,40,5.90
2005,10,22,07,41,5.90
2005,10,22,07,42,5.90
2005,10,22,07,43,5.90
2005,10,22,07,44,5.80
2005,10,22,07,45,5.70
2005,10,22,07,46,5.70
2005,10,22,07,47,5.70
2005,10,22,07,48,5.70
2005,10,22,07,49,5.70
2005,10,22,07,50,5.70
2005,10,22,07,51,5.70
2005,10,22,07,52,5.70
2005,10,22,07,53,5.70
2005,10,22,07,54,5.70
2005,10,22,07,55,5.70
2005,10,22,07,56,5.70
2005,10,22,07,57,5.80
2005,10,22,07,58,5.80
2005,10,22,07,59,5.80
2005,10,22,08,00,5.80
2005,10,22,08,01,5.80
2005,10,22,08,02,5.90
2005,10,22,08,03,5.90
2005,10,22,08,04,5.90
2005,10,22,08,05,5.90
2005,10,22,08,06,5.90
2005,10,22,08,07,5.90
2005,10,22,08,08,5.90
2005,10,22,08,09,6.00
2005,10,22,08,10,6.00
2005,10,22,08,11,6.00
2005,10,22,08,12,6.00
2005,10,22,08,13,6.00
2005,10,22,08,14,6.00
2005,10,22,08,15,6.00
2005,10,22,08,16,6.00
2005,10,22,08,17,6.00
2005,10,22,08,18,6.10
2005,10,22,08,19,6.10
2005,10,22,08,20,6.10
2005,10,22,08,21,6.10
2005,10,22,08,22,6.10
2005,10,22,08,23,6.10
2005,10,22,08,24,6.20
2005,10,22,08,25,6.20
2005,10,22,08,26,6.20
2005,10,22,08,27,6.20
2005,10,22,08,28,6.20
2005,10,22,08,29,6.20
2005,10,22,08,30,6.30
2005,10,22,08,31,6.40
2005,10,22,08,32,6.40
2005,10,22,08,33,6.40
2005,10,22,08,34,6.50
2005,10,22,08,35,6.60
2005,10,22,08,36,6.60
2005,10,22,08,37,6.70
2005,10,22,08,38,6.80
2005,10,22,08,39,6.80
2005,10,22,08,40,6.90
2005,10,22,08,41,7.00
2005,10,22,08,42,7.10
2005,10,22,08,43,7.20
2005,10,22,08,44,7.30
2005,10,22,08,45,7.30
2005,10,22,08,46,7.40
2005,10,22,08,47,7.40
2005,10,22,08,48,7.40
2005,10,22,08,49,7.40
2005,10,22,08,50,7.50
2005,10,22,08,51,7.60
2005,10,22,08,52,7.60
2005,10,22,08,53,7.70
2005,10,22,08,54,7.80
2005,10,22,08,55,7.90
2005,10,22,08,56,8.00
2005,10,22,08,57,8.10
2005,10,22,08,58,8.30
2005,10,22,08,59,8.40
2005,10,22,09,00,8.50
2005,10,22,09,01,8.60
2005,10,22,09,02,8.70
2005,10,22,09,03,8.90
2005,10,22,09,04,9.10
2005,10,22,09,05,9.20
2005,10,22,09,06,9.40
2005,10,22,09,07,9.50
2005,10,22,09,08,9.60
2005,10,22,09,09,9.70
2005,10,22,09,10,9.80
2005,10,22,09,11,9.80
2005,10,22,09,12,9.90
2005,10,22,09,13,10.10
2005,10,22,09,14,10.20
2005,10,22,09,15,10.30
2005,10,22,09,16,10.40
2005,10,22,09,17,10.50
2005,10,22,09,18,10.60
2005,10,22,09,19,10.70
2005,10,22,09,20,10.80
2005,10,22,09,21,10.90
2005,10,22,09,22,10.90
2005,10,22,09,23,10.90
2005,10,22,09,24,10.90
2005,10,22,09,25,10.90
2005,10,22,09,26,10.90
2005,10,22,09,27,11.00
2005,10,22,09,28,11.10
2005,10,22,09,29,11.20
2005,10,22,09,30,11.30
2005,10,22,09,31,11.50
2005,10,22,09,32,11.60
2005,10,22,09,33,11.70
2005,10,22,09,34,11.80
2005,10,22,09,35,12.00
2005,10,22,09,36,12.10
2005,10,22,09,37,12.10
2005,10,22,09,38,12.30
2005,10,22,09,39,12.30
2005,10,22,09,40,12.40
2005,10,22,09,41,12.40
2005,10,22,09,42,12.50
2005,10,22,09,43,12.50
2005,10,22,09,46,12.60
2005,10,22,09,47,12.60
2005,10,22,09,48,12.60
2005,10,22,09,49,12.50
2005,10,22,09,50,12.50
2005,10,22,09,51,12.50
2005,10,22,09,52,12.50
2005,10,22,09,53,12.50
2005,10,22,09,54,12.50
2005,10,22,09,55,12.50
2005,10,22,09,56,12.50
2005,10,22,09,57,12.50
2005,10,22,09,58,12.50
2005,10,22,09,59,12.50
2005,10,22,10,00,12.60
2005,10,22,10,01,12.70
2005,10,22,10,02,12.80
2005,10,22,10,03,12.80
2005,10,22,10,04,12.80
2005,10,22,10,05,12.80
2005,10,22,10,06,12.90
2005,10,22,10,07,12.90
2005,10,22,10,08,12.90
2005,10,22,10,09,12.80
2005,10,22,10,10,12.80
2005,10,22,10,11,12.90
2005,10,22,10,12,12.90
2005,10,22,10,13,12.90
2005,10,22,10,14,12.90
2005,10,22,10,15,12.80
2005,10,22,10,16,12.80
2005,10,22,10,17,12.80
2005,10,22,10,18,12.80
2005,10,22,10,19,12.80
2005,10,22,10,20,12.80
2005,10,22,10,21,12.80
2005,10,22,10,22,12.80
2005,10,22,10,23,12.80
2005,10,22,10,24,12.80
2005,10,22,10,25,12.80
2005,10,22,10,26,12.80
2005,10,22,10,27,12.80
2005,10,22,10,28,12.80
2005,10,22,10,29,12.80
2005,10,22,10,30,12.80
2005,10,22,10,31,12.80
2005,10,22,10,32,12.70
2005,10,22,10,33,12.70
2005,10,22,10,34,12.70
2005,10,22,10,35,12.70
2005,10,22,10,36,12.70
2005,10,22,10,37,12.70
2005,10,22,10,38,12.70
2005,10,22,10,39,12.70
2005,10,22,10,40,12.70
2005,10,22,10,41,12.70
2005,10,22,10,42,12.70
2005,10,22,10,43,12.70
2005,10,22,10,44,12.70
2005,10,22,10,45,12.80
2005,10,22,10,46,12.90
2005,10,22,10,47,13.00
2005,10,22,10,48,13.10
2005,10,22,10,49,13.20
2005,10,22,10,50,13.20
2005,10,22,10,51,13.30
2005,10,22,10,52,13.30
2005,10,22,10,53,13.30
2005,10,22,10,54,13.30
2005,10,22,10,55,13.30
2005,10,22,10,56,13.30
2005,10,22,10,57,13.30
2005,10,22,10,58,13.30
2005,10,22,10,59,13.30
2005,10,22,11,00,13.30
2005,10,22,11,01,13.30
2005,10,22,11,02,13.30
2005,10,22,11,03,13.30
2005,10,22,11,04,13.30
2005,10,22,11,05,13.30
2005,10,22,11,06,13.30
2005,10,22,11,07,13.30
2005,10,22,11,08,13.40
2005,10,22,11,09,13.40
2005,10,22,11,10,13.40
2005,10,22,11,11,13.50
2005,10,22,11,12,13.50
2005,10,22,11,13,13.50
2005,10,22,11,14,13.60
2005,10,22,11,15,13.60
2005,10,22,11,16,13.60
2005,10,22,11,17,13.50
2005,10,22,11,18,13.50
2005,10,22,11,19,13.40
2005,10,22,11,20,13.30
2005,10,22,11,21,13.30
2005,10,22,11,22,13.30
2005,10,22,11,23,13.30
2005,10,22,11,24,13.30
2005,10,22,11,25,13.30
2005,10,22,11,26,13.30
2005,10,22,11,27,13.30
2005,10,22,11,28,13.40
2005,10,22,11,29,13.40
2005,10,22,11,30,13.50
2005,10,22,11,31,13.60
2005,10,22,11,32,13.70
2005,10,22,11,33,13.70
2005,10,22,11,34,13.80
2005,10,22,11,35,13.80
2005,10,22,11,36,13.90
2005,10,22,11,37,14.00
2005,10,22,11,38,14.00
2005,10,22,11,39,14.10
2005,10,22,11,40,14.20
2005,10,22,11,41,14.20
2005,10,22,11,42,14.30
2005,10,22,11,43,14.30
2005,10,22,11,44,14.40
2005,10,22,11,45,14.40
2005,10,22,11,46,14.40
2005,10,22,11,47,14.30
2005,10,22,11,48,14.20
2005,10,22,11,49,14.20
2005,10,22,11,50,14.10
2005,10,22,11,51,14.10
2005,10,22,11,52,14.00
2005,10,22,11,53,14.00
2005,10,22,11,54,14.00
2005,10,22,11,55,13.90
2005,10,22,11,56,13.90
2005,10,22,11,57,13.90
2005,10,22,11,58,13.90
2005,10,22,11,59,13.90
2005,10,22,12,00,14.00
2005,10,22,12,01,14.00
2005,10,22,12,02,14.00
2005,10,22,12,03,14.10
2005,10,22,12,04,14.10
2005,10,22,12,05,14.20
2005,10,22,12,06,14.20
2005,10,22,12,07,14.20
2005,10,22,12,08,14.30
2005,10,22,12,09,14.20
2005,10,22,12,10,14.20
2005,10,22,12,11,14.20
2005,10,22,12,12,14.10
2005,10,22,12,13,14.10
2005,10,22,12,14,14.10
2005,10,22,12,15,14.10
2005,10,22,12,16,14.20
2005,10,22,12,17,14.20
2005,10,22,12,18,14.20
2005,10,22,12,19,14.20
2005,10,22,12,20,14.20
2005,10,22,12,21,14.20
2005,10,22,12,22,14.20
2005,10,22,12,23,14.20
2005,10,22,12,24,14.20
2005,10,22,12,25,14.20
2005,10,22,12,26,14.20
2005,10,22,12,27,14.20
2005,10,22,12,28,14.20
2005,10,22,12,29,14.20
2005,10,22,12,30,14.20
2005,10,22,12,31,14.20
2005,10,22,12,32,14.20
2005,10,22,12,33,14.10
2005,10,22,12,34,14.10
2005,10,22,12,35,14.00
2005,10,22,12,36,13.90
2005,10,22,12,37,13.90
2005,10,22,12,38,13.80
2005,10,22,12,39,13.70
2005,10,22,12,40,13.70
2005,10,22,12,41,13.70
2005,10,22,12,42,13.70
2005,10,22,12,43,13.70
2005,10,22,12,44,13.70
2005,10,22,12,45,13.70
2005,10,22,12,46,13.70
2005,10,22,12,47,13.70
2005,10,22,12,48,13.60
2005,10,22,12,49,13.60
2005,10,22,12,50,13.60
2005,10,22,12,51,13.50
2005,10,22,12,52,13.50
2005,10,22,12,53,13.50
2005,10,22,12,54,13.50
2005,10,22,12,55,13.50
2005,10,22,12,56,13.60
2005,10,22,12,57,13.60
2005,10,22,12,58,13.60
2005,10,22,12,59,13.60
2005,10,22,13,00,13.60
2005,10,22,13,01,13.50
2005,10,22,13,02,13.60
2005,10,22,13,03,13.60
2005,10,22,13,04,13.60
2005,10,22,13,05,13.60
2005,10,22,13,06,13.60
2005,10,22,13,07,13.60
2005,10,22,13,08,13.60
2005,10,22,13,09,13.60
2005,10,22,13,10,13.60
2005,10,22,13,11,13.60
2005,10,22,13,12,13.60
2005,10,22,13,13,13.60
2005,10,22,13,14,13.50
2005,10,22,13,15,13.50
2005,10,22,13,16,13.50
2005,10,22,13,17,13.50
2005,10,22,13,18,13.50
2005,10,22,13,19,13.50
2005,10,22,13,20,13.40
2005,10,22,13,21,13.40
2005,10,22,13,22,13.40
2005,10,22,13,23,13.40
2005,10,22,13,24,13.50
2005,10,22,13,25,13.50
2005,10,22,13,26,13.50
2005,10,22,13,27,13.50
2005,10,22,13,28,13.50
2005,10,22,13,29,13.60
2005,10,22,13,30,13.60
2005,10,22,13,31,13.60
2005,10,22,13,32,13.60
2005,10,22,13,33,13.70
2005,10,22,13,34,13.70
2005,10,22,13,35,13.70
2005,10,22,13,36,13.70
2005,10,22,13,37,13.80
2005,10,22,13,38,13.80
2005,10,22,13,39,13.80
2005,10,22,13,46,14.00
2005,10,22,13,47,14.00
2005,10,22,13,48,14.00
2005,10,22,13,49,14.00
2005,10,22,13,50,14.00
2005,10,22,13,51,14.00
2005,10,22,13,52,14.00
2005,10,22,13,53,14.00
2005,10,22,13,54,14.10
2005,10,22,13,55,14.10
2005,10,22,13,56,14.10
2005,10,22,13,57,14.10
2005,10,22,13,58,14.00
2005,10,22,13,59,14.10
2005,10,22,14,00,14.10
2005,10,22,14,01,14.10
2005,10,22,14,02,14.10
2005,10,22,14,03,14.10
2005,10,22,14,04,14.10
2005,10,22,14,05,14.10
2005,10,22,14,06,14.10
2005,10,22,14,07,14.10
2005,10,22,14,08,14.10
2005,10,22,14,09,14.20
2005,10,22,14,10,14.20
2005,10,22,14,11,14.20
2005,10,22,14,12,14.20
2005,10,22,14,13,14.20
2005,10,22,14,14,14.20
2005,10,22,14,15,14.20
2005,10,22,14,16,14.20
2005,10,22,14,17,14.20
2005,10,22,14,18,14.20
2005,10,22,14,19,14.20
2005,10,22,14,20,14.20
2005,10,22,14,21,14.10
2005,10,22,14,22,14.10
2005,10,22,14,23,14.10
2005,10,22,14,24,14.10
2005,10,22,14,25,14.10
2005,10,22,14,26,14.10
2005,10,22,14,27,14.10
2005,10,22,14,28,14.10
2005,10,22,14,29,14.10
2005,10,22,14,30,14.10
2005,10,22,14,31,14.10
2005,10,22,14,32,14.10
2005,10,22,14,33,14.10
2005,10,22,14,34,14.10
2005,10,22,14,35,14.10
2005,10,22,14,36,14.10
2005,10,22,14,37,14.10
2005,10,22,14,46,14.00
2005,10,22,14,47,14.00
2005,10,22,14,48,14.10
2005,10,22,14,49,14.10
2005,10,22,14,50,14.20
2005,10,22,14,51,14.20
2005,10,22,14,52,14.20
2005,10,22,14,53,14.20
2005,10,22,14,54,14.30
2005,10,22,14,55,14.40
2005,10,22,14,56,14.40
2005,10,22,14,57,14.40
2005,10,22,14,58,14.50
2005,10,22,14,59,14.50
2005,10,22,15,00,14.60
2005,10,22,15,01,14.60
2005,10,22,15,02,14.70
2005,10,22,15,03,14.70
2005,10,22,15,04,14.70
2005,10,22,15,05,14.70
2005,10,22,15,06,14.70
2005,10,22,15,07,14.70
2005,10,22,15,08,14.80
2005,10,22,15,09,14.80
2005,10,22,15,10,14.80
2005,10,22,15,11,14.90
2005,10,22,15,12,14.90
2005,10,22,15,13,14.90
2005,10,22,15,14,14.90
2005,10,22,15,15,14.80
2005,10,22,15,16,14.80
2005,10,22,15,17,14.80
2005,10,22,15,18,14.80
2005,10,22,15,19,14.80
2005,10,22,15,20,14.80
2005,10,22,15,21,14.80
2005,10,22,15,22,14.80
2005,10,22,15,23,14.90
2005,10,22,15,24,15.00
2005,10,22,15,25,15.10
2005,10,22,15,26,15.20
2005,10,22,15,27,15.30
2005,10,22,15,28,15.30
2005,10,22,15,29,15.50
2005,10,22,15,30,15.60
2005,10,22,15,31,15.60
2005,10,22,15,32,15.80
2005,10,22,15,33,15.90
2005,10,22,15,34,15.90
2005,10,22,15,35,16.10
2005,10,22,15,36,16.10
2005,10,22,15,37,16.10
2005,10,22,15,38,16.00
2005,10,22,15,39,15.90
2005,10,22,15,40,15.90
2005,10,22,15,41,16.00
2005,10,22,15,42,16.10
2005,10,22,15,43,16.10
2005,10,22,15,44,16.10
2005,10,22,15,45,16.10
2005,10,22,15,46,16.10
2005,10,22,15,47,16.10
2005,10,22,15,48,16.00
2005,10,22,15,49,16.00
2005,10,22,15,50,15.90
2005,10,22,15,51,15.90
2005,10,22,15,52,15.90
2005,10,22,15,53,15.80
2005,10,22,15,54,15.80
2005,10,22,15,55,15.80
2005,10,22,15,56,15.80
2005,10,22,15,57,15.70
2005,10,22,15,58,15.70
2005,10,22,15,59,15.70
2005,10,22,16,00,15.70
2005,10,22,16,01,15.70
2005,10,22,16,02,15.70
2005,10,22,16,03,15.60
2005,10,22,16,04,15.60
2005,10,22,16,05,15.60
2005,10,22,16,06,15.60
2005,10,22,16,07,15.70
2005,10,22,16,08,15.70
2005,10,22,16,09,15.80
2005,10,22,16,10,15.80
2005,10,22,16,11,15.80
2005,10,22,16,12,15.80
2005,10,22,16,13,15.90
2005,10,22,16,14,15.90
2005,10,22,16,15,16.10
2005,10,22,16,16,16.10
2005,10,22,16,17,16.10
2005,10,22,16,18,16.20
2005,10,22,16,19,16.20
2005,10,22,16,20,16.20
2005,10,22,16,21,16.30
2005,10,22,16,22,16.30
2005,10,22,16,23,16.30
2005,10,22,16,24,16.30
2005,10,22,16,25,16.30
2005,10,22,16,26,16.40
2005,10,22,16,27,16.40
2005,10,22,16,28,16.40
2005,10,22,16,29,16.50
2005,10,22,16,30,16.60
2005,10,22,16,31,16.60
2005,10,22,16,32,16.60
2005,10,22,16,33,16.60
2005,10,22,16,34,16.60
2005,10,22,16,35,16.60
2005,10,22,16,36,16.60
2005,10,22,16,37,16.60
2005,10,22,16,38,16.60
2005,10,22,16,39,16.60
2005,10,22,16,40,16.60
2005,10,22,16,41,16.60
2005,10,22,16,42,16.60
2005,10,22,16,43,16.60
2005,10,22,16,44,16.50
2005,10,22,16,45,16.40
2005,10,22,16,46,16.40
2005,10,22,16,47,16.40
2005,10,22,16,48,16.40
2005,10,22,16,49,16.40
2005,10,22,16,50,16.30
2005,10,22,16,51,16.20
2005,10,22,16,52,16.20
2005,10,22,16,53,16.10
2005,10,22,16,54,16.10
2005,10,22,16,55,16.10
2005,10,22,16,56,16.10
2005,10,22,16,57,16.10
2005,10,22,16,58,16.10
2005,10,22,16,59,16.10
2005,10,22,17,00,16.10
2005,10,22,17,01,16.10
2005,10,22,17,02,16.10
2005,10,22,17,03,16.10
2005,10,22,17,04,16.10
2005,10,22,17,05,16.00
2005,10,22,17,06,15.90
2005,10,22,17,07,15.90
2005,10,22,17,08,15.80
2005,10,22,17,09,15.70
2005,10,22,17,10,15.60
2005,10,22,17,11,15.50
2005,10,22,17,12,15.40
2005,10,22,17,13,15.30
2005,10,22,17,14,15.20
2005,10,22,17,15,15.10
2005,10,22,17,16,15.10
2005,10,22,17,17,15.00
2005,10,22,17,18,15.00
2005,10,22,17,19,14.90
2005,10,22,17,20,14.80
2005,10,22,17,21,14.80
2005,10,22,17,22,14.70
2005,10,22,17,23,14.60
2005,10,22,17,24,14.60
2005,10,22,17,25,14.50
2005,10,22,17,26,14.50
2005,10,22,17,27,14.40
2005,10,22,17,28,14.40
2005,10,22,17,29,14.40
2005,10,22,17,30,14.30
2005,10,22,17,31,14.30
2005,10,22,17,32,14.30
2005,10,22,17,33,14.30
2005,10,22,17,34,14.30
2005,10,22,17,35,14.30
2005,10,22,17,36,14.20
2005,10,22,17,37,14.20
2005,10,22,17,38,14.10
2005,10,22,17,39,14.00
2005,10,22,17,40,14.00
2005,10,22,17,41,14.00
2005,10,22,17,42,13.90
2005,10,22,17,43,13.90
2005,10,22,17,44,13.90
2005,10,22,17,45,13.90
2005,10,22,17,46,13.90
2005,10,22,17,47,13.80
2005,10,22,17,48,13.70
2005,10,22,17,49,13.70
2005,10,22,17,50,13.70
2005,10,22,17,51,13.70
2005,10,22,17,52,13.70
2005,10,22,17,53,13.60
2005,10,22,17,54,13.60
2005,10,22,17,55,13.60
2005,10,22,17,56,13.60
2005,10,22,17,57,13.60
2005,10,22,17,58,13.60
2005,10,22,17,59,13.60